GW2746 Weather Reports


Display with metric or nautical units.
time (UTC)temp
F
wind
direction
speed
MPH
gust
MPH
rain 1hr
in
rain 24hr
in
rain mn
in
humidity
%
barometer
mb
20260507014650 54 311 0.0 0.0 0.00 0.00 0.00 42 1016.5
20260507014126 54 311 0.0 1.0 0.00 0.00 0.00 41 1016.4
20260507013630 55 311 0.0 1.0 0.00 0.00 0.00 40 1016.3
20260507013128 55 311 0.0 0.0 0.00 0.00 0.00 39 1016.3
20260507012631 56 311 0.0 0.0 0.00 0.00 0.00 37 1016.3
20260507012130 56 311 0.0 0.0 0.00 0.00 0.00 35 1016.3
20260507011634 57 311 0.0 0.0 0.00 0.00 0.00 35 1016.3
20260507011152 57 311 0.0 0.0 0.00 0.00 0.00 33 1016.3
20260507010635 58 311 0.0 1.0 0.00 0.00 0.00 33 1016.4
20260507010114 58 311 0.0 2.0 0.00 0.00 0.00 31 1016.3
20260507005622 58 311 0.0 3.0 0.00 0.00 0.00 31 1016.3
20260507005126 58 328 1.0 4.0 0.00 0.00 0.00 30 1016.3
20260507004631 59 331 1.0 6.0 0.00 0.00 0.00 29 1016.3
20260507004128 59 335 2.0 6.0 0.00 0.00 0.00 30 1016.4
20260507003652 59 330 2.0 5.0 0.00 0.00 0.00 30 1016.4
20260507003130 59 267 3.0 7.0 0.00 0.00 0.00 30 1016.5
20260507002635 59 291 3.0 7.0 0.00 0.00 0.00 29 1016.5
20260507002134 60 280 2.0 4.0 0.00 0.00 0.00 30 1016.5
20260507001623 60 181 2.0 4.0 0.00 0.00 0.00 29 1016.5
20260507001124 60 282 3.0 4.0 0.00 0.00 0.00 30 1016.6
20260507000633 60 19 1.0 7.0 0.00 0.00 0.00 29 1016.6
20260507000117 60 338 2.0 7.0 0.00 0.00 0.00 29 1016.7
20260506235622 59 265 1.0 7.0 0.00 0.00 0.00 30 1016.7
20260506235119 59 288 1.0 7.0 0.00 0.00 0.00 29 1016.8
20260506234623 60 320 2.0 6.0 0.00 0.00 0.00 29 1016.9
20260506234120 60 254 2.0 6.0 0.00 0.00 0.00 30 1016.8
20260506233626 60 277 3.0 6.0 0.00 0.00 0.00 30 1016.9
20260506233125 60 287 4.0 6.0 0.00 0.00 0.00 30 1016.9
20260506232631 61 285 3.0 6.0 0.00 0.00 0.00 29 1016.8
20260506232130 61 234 3.0 6.0 0.00 0.00 0.00 30 1016.8
20260506231618 60 258 1.0 6.0 0.00 0.00 0.00 29 1016.9
20260506231136 60 229 3.0 8.0 0.00 0.00 0.00 29 1017.0
20260506230641 60 288 3.0 11.0 0.00 0.00 0.00 29 1017.1
20260506230117 59 320 5.0 11.0 0.00 0.00 0.00 29 1017.1
20260506225622 59 73 4.0 8.0 0.00 0.00 0.00 30 1017.1
20260506225123 59 285 4.0 11.0 0.00 0.00 0.00 30 1017.1
20260506224627 60 279 4.0 11.0 0.00 0.00 0.00 30 1017.2
20260506224125 60 284 4.0 9.0 0.00 0.00 0.00 29 1017.2
20260506223628 60 285 3.0 9.0 0.00 0.00 0.00 30 1017.2
20260506223126 61 276 2.0 10.0 0.00 0.00 0.00 29 1017.2
20260506222630 61 249 3.0 10.0 0.00 0.00 0.00 30 1017.3
20260506222142 61 296 3.0 7.0 0.00 0.00 0.00 29 1017.3
20260506221624 60 199 2.0 6.0 0.00 0.00 0.00 31 1017.4
20260506221123 59 300 1.0 8.0 0.00 0.00 0.00 31 1017.4
20260506220631 59 294 2.0 10.0 0.00 0.00 0.00 31 1017.5
20260506220133 60 19 3.0 10.0 0.00 0.00 0.00 30 1016.7
20260506215618 60 354 3.0 7.0 0.00 0.00 0.00 29 1016.5
20260506215120 60 358 2.0 10.0 0.00 0.00 0.00 30 1016.7
20260506214623 60 265 3.0 11.0 0.00 0.00 0.00 30 1016.7
20260506214124 60 326 5.0 11.0 0.00 0.00 0.00 29 1016.7
20260506213627 60 271 6.0 9.0 0.00 0.00 0.00 29 1016.7
20260506213145 60 330 4.0 6.0 0.00 0.00 0.00 30 1016.7
20260506212630 59 304 2.0 7.0 0.00 0.00 0.00 30 1016.8
20260506212133 59 285 3.0 11.0 0.00 0.00 0.00 31 1016.9
20260506211617 59 331 4.0 11.0 0.00 0.00 0.00 30 1017.0
20260506211136 59 262 5.0 11.0 0.00 0.00 0.00 30 1017.1
20260506210639 59 316 4.0 11.0 0.00 0.00 0.00 31 1017.2
20260506210118 58 260 7.0 10.0 0.00 0.00 0.00 31 1017.2
20260506205646 58 243 3.0 9.0 0.00 0.00 0.00 31 1017.3
20260506205125 58 231 4.0 15.0 0.00 0.00 0.00 31 1018.4
20260506204629 59 317 5.0 15.0 0.00 0.00 0.00 31 1018.3
20260506204124 59 302 3.0 13.0 0.00 0.00 0.00 31 1018.3
20260506203633 59 274 3.0 8.0 0.00 0.00 0.00 32 1018.4
20260506203132 59 283 5.0 9.0 0.00 0.00 0.00 31 1018.5
20260506202654 58 275 4.0 9.0 0.00 0.00 0.00 31 1018.6
20260506202130 59 293 4.0 9.0 0.00 0.00 0.00 32 1018.6
20260506201633 58 53 3.0 9.0 0.00 0.00 0.00 33 1017.7
20260506201118 58 251 3.0 8.0 0.00 0.00 0.00 32 1018.7
20260506200621 58 42 1.0 11.0 0.00 0.00 0.00 33 1018.8
20260506200119 59 267 4.0 11.0 0.00 0.00 0.00 31 1018.8
20260506195643 59 328 3.0 11.0 0.00 0.00 0.00 32 1018.8
20260506195121 59 285 3.0 14.0 0.00 0.00 0.00 34 1018.8
20260506194633 58 203 6.0 15.0 0.00 0.00 0.00 31 1018.0
20260506194133 59 287 6.0 17.0 0.00 0.00 0.00 32 1018.9
20260506193636 59 251 7.0 17.0 0.00 0.00 0.00 32 1018.9
20260506193135 58 295 5.0 9.0 0.00 0.00 0.00 32 1019.0
20260506192625 58 285 4.0 10.0 0.00 0.00 0.00 32 1019.0
20260506192125 57 338 4.0 10.0 0.00 0.00 0.00 33 1017.9
20260506191629 57 272 2.0 11.0 0.00 0.00 0.00 34 1018.0
20260506191153 57 264 6.0 10.0 0.00 0.00 0.00 34 1018.1
20260506190619 58 256 3.0 10.0 0.00 0.00 0.00 33 1019.0
20260506190119 58 273 5.0 11.0 0.00 0.00 0.00 34 1019.0
20260506185623 58 278 3.0 9.0 0.00 0.00 0.00 35 1019.0
20260506185122 57 281 5.0 18.0 0.00 0.00 0.00 35 1019.1
20260506184630 56 243 5.0 18.0 0.00 0.00 0.00 34 1019.3
20260506184127 56 320 5.0 12.0 0.00 0.00 0.00 35 1019.3
20260506183636 56 336 5.0 11.0 0.00 0.00 0.00 34 1019.5
20260506183134 57 210 4.0 16.0 0.00 0.00 0.00 36 1019.5
20260506182624 56 234 9.0 16.0 0.00 0.00 0.00 35 1019.5
20260506182126 56 291 0.0 9.0 0.00 0.00 0.00 34 1019.4
20260506181629 56 300 4.0 7.0 0.00 0.00 0.00 36 1019.5
20260506181126 55 256 3.0 7.0 0.00 0.00 0.00 36 1019.5
20260506180629 56 270 3.0 11.0 0.00 0.00 0.00 38 1019.6
20260506180130 56 275 5.0 11.0 0.00 0.00 0.00 37 1019.7
20260506175634 56 244 4.0 11.0 0.00 0.00 0.00 37 1019.8
20260506175135 56 260 5.0 10.0 0.00 0.00 0.00 37 1019.9
20260506174618 55 243 4.0 10.0 0.00 0.00 0.00 41 1019.9
20260506174118 55 273 5.0 10.0 0.00 0.00 0.00 37 1019.8
20260506173626 54 14 4.0 10.0 0.00 0.00 0.00 37 1020.0
20260506173123 54 262 6.0 11.0 0.00 0.00 0.00 38 1020.0
20260506172629 54 295 3.0 14.0 0.00 0.00 0.00 37 1020.1
20260506172152 54 286 7.0 14.0 0.00 0.00 0.00 36 1020.1
20260506171618 55 277 6.0 12.0 0.00 0.00 0.00 36 1020.1
20260506171117 55 247 9.0 12.0 0.00 0.00 0.00 35 1020.2
20260506170622 55 48 5.0 12.0 0.00 0.00 0.00 36 1020.3
20260506170140 55 248 3.0 10.0 0.00 0.00 0.00 38 1020.1
20260506165626 54 356 4.0 10.0 0.00 0.00 0.00 37 1020.3
20260506165122 54 262 5.0 9.0 0.00 0.00 0.00 38 1020.3
20260506164627 54 228 4.0 10.0 0.00 0.00 0.00 37 1020.4
20260506164125 54 206 6.0 10.0 0.00 0.00 0.00 40 1020.4
20260506163628 54 9 3.0 9.0 0.00 0.00 0.00 42 1020.3
20260506163125 53 240 4.0 9.0 0.00 0.00 0.00 41 1020.4
20260506162631 53 77 4.0 10.0 0.00 0.00 0.00 40 1020.5
20260506162155 52 267 4.0 10.0 0.00 0.00 0.00 41 1020.3
20260506161654 53 271 3.0 7.0 0.00 0.00 0.00 41 1020.3
20260506161129 52 81 1.0 11.0 0.00 0.00 0.00 44 1020.4
20260506160634 52 111 1.0 12.0 0.00 0.00 0.00 41 1020.3
20260506160133 52 337 4.0 12.0 0.00 0.00 0.00 40 1020.3
20260506155624 52 339 5.0 6.0 0.00 0.00 0.00 41 1020.3
20260506155125 52 332 4.0 11.0 0.00 0.00 0.00 42 1020.3
20260506154633 52 9 3.0 11.0 0.00 0.00 0.00 41 1020.3
20260506154114 52 288 5.0 9.0 0.00 0.00 0.00 41 1020.3
20260506153623 51 307 2.0 8.0 0.00 0.00 0.00 43 1020.3
20260506153120 51 323 3.0 8.0 0.00 0.00 0.00 42 1020.3
20260506152627 51 358 1.0 8.0 0.00 0.00 0.00 43 1020.3
20260506152126 51 324 3.0 10.0 0.00 0.00 0.00 43 1020.3
20260506151633 51 300 3.0 10.0 0.00 0.00 0.00 43 1020.4
20260506151133 51 19 3.0 7.0 0.00 0.00 0.00 42 1020.3
20260506150620 52 275 4.0 7.0 0.00 0.00 0.00 43 1020.4
20260506150124 51 53 3.0 7.0 0.00 0.00 0.00 42 1020.4
20260506145633 51 287 3.0 7.0 0.00 0.00 0.00 46 1020.4
20260506145114 50 298 1.0 7.0 0.00 0.00 0.00 46 1020.5
20260506144621 50 309 4.0 8.0 0.00 0.00 0.00 45 1020.4
20260506144118 50 286 4.0 8.0 0.00 0.00 0.00 46 1020.4
20260506143618 50 321 3.0 5.0 0.00 0.00 0.00 45 1020.4
20260506143134 49 350 1.0 7.0 0.00 0.00 0.00 46 1020.4
20260506142638 49 237 2.0 7.0 0.00 0.00 0.00 47 1020.3
20260506142122 49 65 1.0 7.0 0.00 0.00 0.00 48 1020.4
20260506141630 49 36 2.0 7.0 0.00 0.00 0.00 46 1020.3
20260506141129 49 19 1.0 4.0 0.00 0.00 0.00 47 1020.3
20260506140635 48 19 1.0 5.0 0.00 0.00 0.00 48 1020.2
20260506140136 48 277 2.0 5.0 0.00 0.00 0.00 48 1020.1
20260506135624 48 333 1.0 5.0 0.00 0.00 0.00 50 1020.1
20260506135119 47 264 3.0 5.0 0.00 0.00 0.00 50 1020.1
20260506134627 47 354 0.0 4.0 0.00 0.00 0.00 52 1020.1
20260506134130 46 320 1.0 4.0 0.00 0.00 0.00 52 1020.0
20260506133634 46 324 2.0 4.0 0.00 0.00 0.00 53 1020.0
20260506133133 45 315 1.0 3.0 0.00 0.00 0.00 55 1019.0
20260506132617 45 324 1.0 5.0 0.00 0.00 0.00 56 1019.0
20260506132117 44 314 2.0 5.0 0.00 0.00 0.00 57 1018.9
20260506131623 44 327 2.0 5.0 0.00 0.00 0.00 57 1018.8
20260506131124 44 320 0.0 4.0 0.00 0.00 0.00 58 1018.8
20260506130627 43 58 1.0 4.0 0.00 0.00 0.00 58 1018.7
20260506130128 43 354 0.0 5.0 0.00 0.00 0.00 60 1018.7
20260506125636 42 352 2.0 5.0 0.00 0.00 0.00 59 1018.8
20260506125155 42 353 1.0 5.0 0.00 0.00 0.00 61 1018.7
20260506124657 41 290 0.0 5.0 0.00 0.00 0.00 62 1018.6
20260506124134 40 351 1.0 4.0 0.00 0.00 0.00 64 1018.5
20260506123622 40 356 1.0 3.0 0.00 0.00 0.00 67 1018.4
20260506123126 39 19 0.0 1.0 0.00 0.00 0.00 69 1018.4
20260506122634 38 19 0.0 1.0 0.00 0.00 0.00 70 1018.2
20260506122146 38 19 0.0 2.0 0.00 0.00 0.00 72 1018.2
20260506121629 37 19 0.0 2.0 0.00 0.00 0.00 74 1018.1
20260506121127 36 19 0.0 0.0 0.00 0.00 0.00 76 1018.0
20260506120636 36 19 0.0 0.0 0.00 0.00 0.00 75 1018.0
20260506120121 36 19 0.0 0.0 0.00 0.00 0.00 74 1018.9
20260506115626 36 19 0.0 0.0 0.00 0.00 0.00 74 1018.8
20260506115126 36 19 0.0 0.0 0.00 0.00 0.00 74 1018.7
20260506114629 36 19 0.0 0.0 0.00 0.00 0.00 72 1018.6
20260506114128 36 19 0.0 0.0 0.00 0.00 0.00 72 1018.6
20260506113631 37 19 0.0 0.0 0.00 0.00 0.00 71 1018.6
20260506113117 37 19 0.0 0.0 0.00 0.00 0.00 71 1018.5
20260506112644 37 19 0.0 0.0 0.00 0.00 0.00 69 1018.5
20260506112121 37 19 0.0 0.0 0.00 0.00 0.00 68 1018.4
20260506111646 38 19 0.0 0.0 0.00 0.00 0.00 68 1018.5
20260506111122 38 19 0.0 0.0 0.00 0.00 0.00 68 1018.4
20260506110628 38 19 0.0 0.0 0.00 0.00 0.00 67 1018.4
20260506110132 38 19 0.0 0.0 0.00 0.00 0.00 65 1018.5
20260506105636 39 19 0.0 0.0 0.00 0.00 0.00 64 1018.5
20260506105117 39 19 0.0 0.0 0.00 0.00 0.00 64 1018.5
20260506104623 39 19 0.0 0.0 0.00 0.00 0.00 63 1018.4
20260506104121 40 19 0.0 0.0 0.00 0.00 0.00 62 1018.4
20260506103628 40 19 0.0 0.0 0.00 0.00 0.00 61 1018.3
20260506103150 41 19 0.0 0.0 0.00 0.00 0.00 60 1018.3
20260506102633 41 19 0.0 0.0 0.00 0.00 0.00 59 1018.3
20260506102133 41 19 0.0 0.0 0.00 0.00 0.00 58 1018.2
20260506101620 41 19 0.0 1.0 0.00 0.00 0.00 57 1018.1
20260506101121 42 19 0.0 2.0 0.00 0.00 0.00 56 1018.1
20260506100628 42 45 0.0 2.0 0.00 0.00 0.00 56 1018.1
20260506100132 42 356 0.0 2.0 0.00 0.00 0.00 55 1018.0
20260506095635 42 356 0.0 2.0 0.00 0.00 0.00 55 1018.0
20260506095133 42 358 0.0 2.0 0.00 0.00 0.00 54 1018.0
20260506094637 43 345 0.0 3.0 0.00 0.00 0.00 54 1018.0
20260506094138 43 345 1.0 3.0 0.00 0.00 0.00 54 1017.9
20260506093628 43 60 1.0 3.0 0.00 0.00 0.00 53 1017.9
20260506093126 43 5 0.0 1.0 0.00 0.00 0.00 53 1017.8
20260506092631 43 329 0.0 5.0 0.00 0.00 0.00 52 1017.7
20260506092130 43 329 1.0 5.0 0.00 0.00 0.00 52 1017.7
20260506091654 44 9 0.0 3.0 0.00 0.00 0.00 53 1017.6
20260506091156 44 343 1.0 3.0 0.00 0.00 0.00 52 1017.6
20260506090619 44 343 0.0 1.0 0.00 0.00 0.00 52 1017.5
20260506090117 44 14 0.0 1.0 0.00 0.00 0.00 52 1017.4
20260506085619 44 350 0.0 2.0 0.00 0.00 0.00 52 1017.5
20260506085117 44 350 0.0 2.0 0.00 0.00 0.00 51 1017.4
20260506084624 44 350 1.0 3.0 0.00 0.00 0.00 50 1017.3
20260506084120 45 333 0.0 3.0 0.00 0.00 0.00 50 1017.3
20260506083632 45 333 0.0 4.0 0.00 0.00 0.00 50 1017.3
20260506083131 45 43 0.0 1.0 0.00 0.00 0.00 50 1017.2
20260506082635 45 43 0.0 1.0 0.00 0.00 0.00 50 1017.2
20260506082133 45 43 0.0 2.0 0.00 0.00 0.00 50 1017.2
20260506081620 45 43 0.0 2.0 0.00 0.00 0.00 49 1017.1
20260506081135 45 14 0.0 3.0 0.00 0.00 0.00 49 1017.2
20260506080622 45 31 1.0 2.0 0.00 0.00 0.00 49 1017.2
20260506080126 45 9 0.0 1.0 0.00 0.00 0.00 49 1017.2
20260506073127 46 14 0.0 2.0 0.00 0.00 0.00 49 1016.9
20260506072631 46 14 0.0 1.0 0.00 0.00 0.00 48 1016.9
20260506072145 46 23 0.0 1.0 0.00 0.00 0.00 48 1016.9
20260506071648 46 23 0.0 3.0 0.00 0.00 0.00 47 1016.8
20260506071129 46 23 1.0 3.0 0.00 0.00 0.00 47 1016.9
20260506070634 46 29 1.0 2.0 0.00 0.00 0.00 46 1016.8
20260506070133 46 35 0.0 3.0 0.00 0.02 0.00 46 1016.9
20260506062117 47 48 1.0 4.0 0.00 0.02 0.00 45 1016.8
20260506061621 47 33 0.0 4.0 0.00 0.02 0.00 45 1016.8
20260506061123 47 90 2.0 4.0 0.00 0.02 0.00 45 1016.8
20260506060635 47 25 1.0 4.0 0.00 0.02 0.00 45 1016.8
20260506060133 47 80 2.0 4.0 0.00 0.02 0.00 45 1016.7
20260506051117 49 48 2.0 8.0 0.00 0.02 0.00 42 1016.2
20260506050646 49 56 1.0 4.0 0.00 0.02 0.00 42 1016.2
20260506050144 49 343 2.0 4.0 0.00 0.03 0.00 42 1016.2
20260506045117 49 9 1.0 5.0 0.00 0.03 0.02 42 1016.1
20260506044621 49 25 3.0 5.0 0.00 0.03 0.02 42 1015.9
20260506044122 49 306 2.0 5.0 0.00 0.03 0.02 42 1016.0
20260506043630 49 31 1.0 5.0 0.00 0.03 0.02 42 1016.0
20260506043132 49 2 1.0 5.0 0.00 0.03 0.02 42 1016.0
20260506042625 49 33 1.0 5.0 0.00 0.03 0.02 42 1015.9
20260506042125 49 29 2.0 5.0 0.00 0.03 0.02 42 1015.8
20260506041629 50 332 0.0 3.0 0.00 0.03 0.02 42 1015.7
20260506041126 50 339 0.0 3.0 0.00 0.03 0.02 42 1015.7
20260506040633 50 49 1.0 4.0 0.00 0.03 0.02 42 1015.7
20260506040141 50 23 1.0 5.0 0.00 0.03 0.02 42 1015.6
20260506035622 50 9 3.0 5.0 0.00 0.03 0.02 41 1015.7
20260506035120 50 352 0.0 4.0 0.00 0.03 0.02 42 1015.8
20260506034625 50 54 0.0 2.0 0.00 0.03 0.02 42 1015.7
20260506034123 50 58 0.0 3.0 0.00 0.03 0.02 42 1015.6
20260506033631 50 43 0.0 3.0 0.00 0.03 0.02 41 1015.6
20260506033129 50 29 1.0 4.0 0.00 0.03 0.02 42 1015.6
20260506032636 50 334 1.0 4.0 0.00 0.03 0.02 42 1015.5
20260506032135 50 35 0.0 3.0 0.00 0.03 0.02 41 1015.4
20260506031624 51 73 0.0 6.0 0.00 0.03 0.02 41 1015.3
20260506031123 51 344 2.0 6.0 0.00 0.03 0.02 41 1015.2
20260506030625 51 5 2.0 5.0 0.00 0.03 0.02 40 1015.1
20260506030122 51 348 0.0 6.0 0.00 0.03 0.02 41 1015.1
20260506025627 51 36 1.0 6.0 0.00 0.03 0.02 41 1015.0
20260506025125 51 339 1.0 4.0 0.00 0.03 0.02 41 1015.0
20260506024620 51 25 2.0 4.0 0.00 0.03 0.02 41 1014.9
20260506024117 51 19 1.0 4.0 0.00 0.03 0.02 40 1014.9
20260506023617 51 25 1.0 3.0 0.00 0.03 0.02 41 1014.8
20260506023133 51 29 0.0 4.0 0.00 0.03 0.02 41 1014.8
20260506022657 51 57 3.0 7.0 0.00 0.03 0.02 40 1014.7
20260506022117 52 77 1.0 7.0 0.00 0.03 0.02 40 1014.6
20260506021624 52 44 2.0 6.0 0.00 0.03 0.02 40 1014.5
20260506021124 52 357 3.0 6.0 0.00 0.03 0.02 39 1014.5
20260506020627 52 241 1.0 3.0 0.00 0.03 0.02 40 1014.5
20260506020127 52 310 1.0 7.0 0.00 0.03 0.02 40 1014.4
20260506015631 52 310 1.0 7.0 0.00 0.03 0.02 40 1014.3
20260506015127 52 27 2.0 4.0 0.00 0.03 0.02 40 1014.3